Location: Go�ngahuizen
(53.0821°N, 5.8849°E)
Time: 09:23:31
(UTC+00:00)

Cosmos 2278 - Pass Details

Date: 09 April 2020
Orbit: 840 x 852 km, 71.1° (Epoch: 24 May)

Event Time Altitude Azimuth Distance (km) Brightness Sun altitude
Rises 20:21:04 0° 328° (NNW) 3,408 8.2 -16.1°
Reaches altitude 10° 20:23:37 10° 335° (NNW) 2,471 7.1 -16.4°
Maximum altitude 20:29:06 48° 49° (NE) 1,097 4.2 -17.0°
Enters shadow 20:31:55 27° 109° (ESE) 1,583 4.6 -17.4°
